Temperature
21 21 21 21 21 22 23 24 25 25 25 25 25 24 23 22 21 19 18 18 18 18 18 18 18 18 18 18 17 17 17 17 17 17 17 17 17 17 17 17 17 17 17 17 17 17 17 18 18
21 21 21 22 22 23 23 24 24 25 25 25 24 24 23 21 20 18 18 18 18 17 17 18 18 17 17 17 17 17 17 17 17 17 17 17 17 17 17 17 17 17 17 17 17 17 17 17 18
21 21 21 22 23 23 23 24 25 25 25 25 24 23 22 20 19 19 19 18 18 17 18 18 17 17 17 17 17 17 17 17 17 16 16 16 16 16 16 16 16 16 16 16 17 17 17 17 17
20 21 23 23 23 24 25 24 25 25 25 25 24 22 21 20 19 19 19 19 18 17 18 18 17 17 17 17 16 16 16 16 16 16 16 16 16 16 16 16 16 16 16 16 16 17 17 17 17
21 22 23 23 24 25 25 25 25 25 25 24 23 21 20 19 19 19 19 19 18 17 17 17 17 17 17 17 16 16 16 16 16 16 16 16 16 16 16 16 16 16 16 16 16 16 16 16 17
21 23 23 23 24 25 26 25 25 25 24 23 22 21 19 19 19 19 19 18 18 18 18 18 17 17 17 17 16 16 16 16 16 16 16 16 16 16 16 16 15 15 15 15 16 16 16 16 17
22 22 23 23 23 24 25 25 25 24 24 24 23 21 20 19 19 19 19 18 18 18 18 18 17 17 17 17 17 16 16 16 16 16 16 16 16 16 16 16 16 15 15 15 16 16 16 16 17
22 23 23 24 23 24 25 25 24 24 24 24 23 21 20 19 19 19 19 19 18 18 18 18 17 17 17 17 17 17 16 16 16 16 16 16 16 16 15 15 16 16 16 16 16 16 16 16 17
22 23 22 23 23 24 25 25 24 24 23 23 23 21 20 19 19 19 19 19 19 19 18 18 18 18 17 17 17 17 16 16 16 16 16 16 16 16 16 16 16 16 16 16 16 16 16 16 16
23 22 23 24 25 24 25 25 24 24 23 22 21 21 20 20 20 20 19 19 19 19 19 19 19 18 18 18 17 17 17 16 16 16 16 16 16 16 16 16 16 16 16 16 16 16 16 16 16
24 23 24 25 25 25 25 24 24 24 22 22 21 20 20 20 20 20 20 20 20 19 19 19 19 19 18 18 17 17 17 17 16 16 16 16 16 16 16 16 16 16 16 16 16 16 16 16 17
25 25 25 25 24 24 24 24 24 23 22 22 21 21 21 21 21 21 21 20 20 20 20 19 19 19 18 18 18 17 17 17 17 16 16 16 16 16 16 16 16 16 16 16 16 16 16 16 17
24 24 24 24 24 24 24 24 23 23 22 22 21 21 21 21 21 21 21 20 20 20 19 19 19 19 19 18 18 18 17 17 17 17 17 16 16 16 16 16 16 16 16 16 16 16 16 16 16
24 24 24 24 24 24 24 24 23 23 22 22 22 21 21 22 21 21 21 21 20 20 19 19 19 19 19 19 18 18 18 17 17 17 17 17 16 16 16 16 16 16 16 16 16 16 16 16 16
24 24 24 24 24 24 24 23 23 22 22 22 22 22 22 22 22 21 21 21 20 20 20 19 19 19 19 18 18 18 18 17 17 17 17 17 16 16 16 16 16 16 16 16 16 16 16 16 16
23 23 22 24 24 24 23 21 23 23 23 22 22 22 22 22 22 22 21 21 21 20 20 19 19 19 18 18 18 18 17 17 17 16 17 17 16 16 16 16 16 15 15 15 16 16 16 16 16
22 22 22 23 24 25 23 22 23 23 23 23 22 22 22 22 22 22 21 21 21 20 20 19 19 19 18 18 18 17 17 17 17 16 16 16 16 16 15 15 15 15 15 15 15 16 16 16 16
21 22 22 23 24 24 23 22 23 23 23 23 22 22 22 22 22 22 22 21 21 21 20 20 19 19 18 18 18 17 17 17 16 16 16 16 16 15 15 15 15 15 15 15 15 15 16 16 16
22 22 22 23 25 24 23 22 23 23 23 23 22 22 22 22 22 22 22 21 21 20 20 20 19 19 18 18 18 17 17 17 16 16 16 16 15 15 15 15 15 15 15 15 15 15 15 15 16
22 22 22 22 24 24 23 22 23 23 23 23 23 23 22 22 22 22 21 21 21 20 20 20 19 19 18 18 18 17 17 17 16 16 16 15 15 15 15 15 15 15 15 15 15 15 15 15 15
22 21 21 21 22 23 23 22 22 24 24 23 23 23 23 23 22 22 21 21 21 20 20 20 20 19 18 18 18 17 17 17 16 16 16 15 15 15 15 15 15 15 15 15 15 15 15 15 15
21 22 22 22 21 21 22 20 22 23 23 23 23 23 23 23 23 22 22 21 21 21 20 20 20 19 19 18 18 17 17 17 17 16 16 16 15 15 15 15 15 15 15 15 15 15 15 15 15
21 22 22 22 21 21 22 21 22 23 22 23 24 24 23 23 23 22 22 21 21 21 20 20 20 19 18 18 18 17 17 17 17 16 16 16 16 15 15 15 15 15 15 15 15 15 15 15 15
22 21 21 21 21 20 21 21 22 23 23 24 24 24 24 23 23 22 22 21 21 20 20 20 19 19 18 18 18 17 17 17 17 16 16 16 16 16 15 15 15 15 15 15 15 15 15 15 15
21 20 19 19 19 20 22 22 23 24 25 25 25 24 24 23 23 22 21 21 20 20 20 19 19 19 18 18 18 17 17 17 17 17 16 16 16 16 16 15 15 15 15 15 15 15 15 15 15
21 21 19 18 19 21 23 22 24 26 26 26 25 24 24 23 23 22 21 20 20 20 19 19 19 19 18 18 18 18 17 17 17 17 17 16 16 16 16 16 15 15 15 15 15 15 15 15 15
21 21 21 20 20 20 22 23 25 26 25 25 25 24 23 23 22 22 21 20 20 20 19 19 19 19 18 18 18 18 17 17 17 17 17 16 16 16 16 16 16 16 15 15 15 15 15 15 15
22 21 21 20 19 20 22 23 23 24 24 25 24 24 23 23 22 21 21 20 20 20 19 19 19 19 18 18 18 18 17 17 17 17 17 17 16 16 16 16 16 16 15 15 15 15 15 15 15
22 22 21 20 20 19 20 22 26 25 25 25 24 24 24 23 22 21 21 20 20 19 19 19 19 19 18 18 18 18 17 17 17 17 16 16 16 16 16 16 16 16 15 15 15 15 14 14 14
23 22 22 20 20 20 20 21 25 25 25 25 25 24 24 23 22 21 21 20 19 19 19 19 19 19 18 18 18 18 17 17 17 17 16 16 16 16 16 16 16 15 15 15 15 14 14 14 14
Wind_Speed
14 13 7 3 3 2 1 4 7 7 7 10 11 12 13 13 10 10 4 8 14 14 15 15 14 14 14 14 13 13 13 12 12 12 11 11 10 10 10 10 10 10 10 10 10 10 9 9 9
12 10 5 3 3 1 3 6 9 10 8 8 11 14 13 12 12 9 5 10 15 15 15 15 15 15 15 14 14 13 13 13 12 12 12 11 11 10 10 10 9 9 9 9 9 9 9 9 8
12 9 4 3 2 1 4 7 8 9 7 8 9 11 8 8 10 6 6 12 15 16 16 15 15 15 15 14 14 14 13 13 12 12 11 11 10 10 10 10 9 9 8 8 8 8 7 7 7
5 4 4 3 1 5 7 7 6 8 8 9 11 10 9 10 9 10 10 13 16 15 16 14 15 15 15 14 14 14 13 12 12 11 10 10 10 9 9 9 8 8 7 7 7 7 6 6 6
4 4 3 2 2 6 7 7 5 7 7 11 14 12 11 12 13 12 11 13 14 14 15 15 15 15 15 14 14 13 12 11 11 10 10 9 9 8 8 7 7 7 6 6 6 6 6 5 5
3 3 3 1 4 5 6 6 8 9 11 14 14 13 9 10 11 11 11 11 13 14 15 15 15 15 14 14 13 12 11 10 10 9 8 7 6 6 6 7 6 6 6 5 5 5 5 5 4
4 4 4 2 4 5 5 5 6 6 9 10 11 11 9 10 9 11 10 10 10 11 13 14 14 14 14 13 12 10 9 8 7 6 4 4 4 5 5 6 6 6 5 5 4 4 3 3 3
4 4 4 2 4 5 6 6 7 8 7 9 11 9 10 11 10 10 10 9 9 8 8 10 13 14 14 12 11 9 8 6 5 3 3 3 3 3 4 6 5 4 3 3 3 3 2 3 4
4 4 3 1 2 5 6 7 8 7 8 8 11 15 16 15 12 10 9 8 7 7 7 7 7 9 11 12 11 10 8 6 6 6 5 5 4 6 6 6 4 2 0 1 3 4 5 6 7
4 3 2 2 3 6 6 6 8 7 10 13 16 17 17 14 12 11 10 9 8 7 7 6 6 6 7 7 9 8 7 6 4 3 1 1 3 2 4 6 4 3 3 3 6 7 7 8 8
5 3 1 4 5 5 5 5 5 9 9 12 17 18 16 13 11 10 9 8 8 7 5 6 6 5 6 5 6 4 4 5 6 3 3 5 4 2 4 4 5 5 4 3 5 7 6 4 3
4 1 0 4 4 3 4 4 6 8 10 14 15 16 14 13 11 10 10 9 7 7 6 5 6 6 7 6 3 3 4 4 5 6 6 5 2 2 3 2 3 3 2 2 4 4 3 3 3
4 2 2 3 3 3 4 6 7 10 13 15 15 15 12 11 10 10 9 8 8 7 6 6 6 7 6 3 1 5 4 4 6 4 6 6 3 2 2 2 2 4 4 3 3 3 3 3 3
3 3 4 4 4 4 7 7 7 11 14 15 15 13 12 11 11 10 9 9 8 7 7 6 6 5 5 4 3 4 4 4 6 4 5 6 4 3 3 3 3 3 4 4 4 3 2 2 2
2 4 4 5 5 6 7 6 9 11 14 15 14 12 11 10 10 9 8 8 9 8 8 6 5 5 7 6 5 4 5 7 5 5 6 7 7 7 5 4 3 3 6 5 4 5 3 3 2
6 6 6 7 8 8 8 7 10 12 14 13 13 12 11 10 10 8 8 7 8 9 9 6 6 7 7 6 4 4 6 5 5 8 10 10 10 10 6 3 3 6 7 5 3 4 4 3 3
7 8 8 8 10 9 7 8 9 11 13 13 12 12 11 11 10 9 8 7 7 8 9 8 7 7 7 5 3 4 5 4 7 9 9 11 11 11 6 3 4 7 4 4 4 4 3 3 3
7 8 9 9 10 10 8 9 11 12 13 12 11 11 11 11 10 10 9 7 7 6 7 9 8 7 6 3 4 4 4 4 6 7 6 7 8 9 7 4 6 6 4 4 4 4 4 3 3
6 6 7 7 9 9 9 10 12 13 12 11 11 11 10 10 11 11 9 8 7 5 6 8 8 7 5 2 3 3 3 3 4 4 5 6 8 7 5 3 3 4 4 5 5 4 5 4 3
5 5 5 3 7 7 7 10 11 12 13 12 13 13 12 11 11 11 10 9 7 6 6 8 7 7 6 3 3 3 3 4 4 2 4 8 9 9 7 5 4 4 4 5 5 5 4 4 4
5 4 4 4 3 4 5 7 10 12 12 12 12 12 13 13 14 13 11 9 8 6 6 7 8 7 6 5 4 4 3 2 3 4 3 5 7 8 8 6 4 4 4 4 4 5 5 3 4
4 4 4 5 5 4 7 5 9 12 12 13 13 11 11 11 13 13 11 10 9 7 6 7 8 7 7 6 4 4 3 3 3 3 3 3 6 7 7 6 5 4 4 5 5 6 4 4 3
3 3 4 5 4 5 7 5 7 13 14 15 14 12 11 11 12 13 12 10 8 7 6 6 8 8 7 6 4 2 3 3 3 3 3 4 4 4 4 5 4 4 4 5 6 5 5 4 4
3 3 4 4 3 7 11 8 7 13 18 18 16 14 13 12 12 12 11 9 8 7 7 6 8 8 6 5 5 4 4 4 4 3 2 3 3 2 3 5 5 5 4 4 4 4 5 4 5
6 4 2 3 4 6 9 8 7 12 17 18 18 16 14 12 12 12 12 11 9 9 8 8 8 7 6 4 5 5 4 4 4 3 3 3 3 3 4 4 3 3 3 4 4 4 4 4 5
9 8 3 3 4 3 7 7 5 10 12 14 15 15 14 13 12 13 13 12 10 10 9 9 9 8 6 4 3 5 4 3 3 3 3 3 4 4 4 4 4 4 5 5 4 4 4 5 5
6 7 5 3 4 4 5 5 4 8 11 12 14 15 15 14 13 13 13 12 11 11 9 9 9 8 7 5 5 5 4 4 4 2 3 4 4 4 4 4 3 3 4 4 4 5 5 5 5
6 5 3 3 2 3 5 7 7 12 13 13 13 14 15 15 14 14 13 12 11 10 9 9 9 9 8 6 5 5 5 5 3 3 4 4 4 4 3 2 3 3 4 4 4 4 4 4 3
8 7 4 2 2 2 1 2 4 13 13 14 13 13 14 15 14 13 12 12 12 11 10 9 9 8 8 7 6 6 4 4 4 3 3 2 3 4 3 2 3 4 4 5 5 4 5 5 4
9 8 6 3 3 2 1 3 2 7 10 12 13 13 13 13 13 13 13 12 12 12 11 9 9 8 7 7 7 6 6 4 5 4 3 1 2 3 4 4 4 5 5 5 5 4 4 4 4
Wind_Direction
302 291 284 267 256 237 35 64 78 65 66 58 56 68 69 54 64 94 133 102 98 97 96 89 86 86 86 86 85 84 83 83 83 82 81 79 77 76 74 70 68 67 65 61 58 55 50 47 42
295 297 286 245 264 273 67 72 76 75 84 85 71 74 74 70 80 95 105 97 98 95 90 88 86 85 84 85 85 85 84 84 82 81 79 78 77 75 71 69 69 67 64 60 56 50 46 43 38
283 275 271 261 278 55 92 81 87 90 87 86 81 65 59 76 82 103 118 103 99 95 92 90 89 87 86 86 84 83 83 82 80 79 77 76 76 74 70 68 67 63 58 54 51 46 40 34 28
290 281 248 256 327 72 94 104 103 99 88 86 89 74 67 75 99 121 118 107 103 101 98 95 92 90 88 86 85 84 83 81 79 76 75 75 74 72 70 68 62 57 51 46 44 41 34 29 21
265 259 263 253 84 86 94 102 95 94 86 84 89 92 84 83 102 109 105 104 105 106 106 104 100 96 92 88 86 84 83 81 79 77 76 75 73 71 68 67 61 52 46 40 36 31 28 26 16
276 260 271 235 107 92 79 81 86 95 98 99 103 104 98 108 108 107 103 105 108 112 112 114 112 107 101 94 90 88 85 83 82 82 83 85 86 84 76 66 55 45 38 32 27 22 19 12 1
275 280 263 231 130 107 92 85 86 99 106 109 110 108 118 119 116 112 108 105 109 118 126 129 129 120 114 109 104 100 96 93 95 99 105 108 108 103 93 76 57 42 31 21 17 12 2 350 328
282 289 281 278 122 108 101 97 95 92 92 110 118 117 128 131 127 119 119 115 114 117 124 132 134 137 136 130 127 127 127 130 137 159 188 186 173 152 135 105 79 53 30 10 347 332 308 296 285
269 265 273 318 103 109 114 112 102 105 101 85 87 115 131 136 132 130 127 120 117 119 120 121 122 133 138 139 142 158 160 171 183 204 240 236 201 178 166 111 120 116 318 293 279 276 269 269 267
231 264 277 65 88 113 125 125 131 121 104 100 102 114 128 138 143 145 142 137 136 131 125 127 130 130 115 105 135 155 151 156 157 137 157 43 78 78 102 134 172 206 233 259 260 263 262 256 249
232 238 359 86 87 105 122 134 127 124 124 125 128 133 141 147 149 145 132 122 122 121 120 119 112 111 111 102 99 91 98 105 73 33 74 51 34 50 104 162 191 224 218 266 278 256 246 240 218
237 207 183 94 94 123 126 118 111 115 129 132 136 141 149 153 147 134 125 125 120 112 108 105 109 101 86 82 103 102 76 75 56 16 49 62 37 33 42 60 30 9 32 349 320 304 342 12 17
221 208 143 121 133 153 126 109 110 118 126 132 140 146 150 148 135 123 122 118 111 109 102 84 80 90 96 93 102 94 67 66 91 30 39 57 48 35 15 80 49 32 16 9 335 344 20 3 19
198 178 161 161 154 148 129 124 124 130 135 141 146 152 155 145 134 135 137 135 128 124 114 101 100 110 124 124 96 85 109 101 79 40 55 58 55 50 22 34 42 31 14 7 358 8 14 9 24
202 184 186 189 178 159 143 141 146 146 148 151 154 157 152 147 146 147 141 141 132 128 117 107 105 85 73 64 60 85 72 71 68 35 36 62 58 56 38 24 19 15 17 19 16 9 8 16 32
205 204 206 202 186 178 166 160 159 161 160 158 160 156 153 156 157 153 146 139 131 130 121 119 105 91 82 73 49 67 65 59 63 45 24 31 49 63 47 13 12 31 24 15 20 25 11 15 27
211 212 203 190 191 186 176 163 168 169 167 165 164 158 163 168 166 156 150 140 130 129 134 135 106 98 92 102 100 67 76 60 66 58 33 23 33 49 46 19 23 28 32 15 18 30 15 21 16
215 214 202 190 187 190 176 166 168 175 176 172 167 167 173 171 169 156 147 131 117 119 126 117 109 110 112 96 92 81 64 60 65 67 49 31 35 43 35 35 31 27 31 20 26 27 18 23 14
264 236 213 191 184 187 177 172 177 180 179 176 175 174 178 171 165 152 140 130 131 133 128 128 138 131 122 111 100 95 90 84 73 71 44 39 42 39 54 38 37 32 35 32 31 24 21 18 29
252 228 200 178 197 187 182 182 189 186 185 185 183 179 177 171 159 151 151 154 155 152 157 145 129 120 113 105 105 110 95 93 94 80 56 47 44 27 32 40 39 42 42 34 35 39 29 15 30
235 227 204 181 211 193 190 194 191 193 189 186 193 186 182 175 161 159 162 159 153 164 169 136 126 125 122 108 76 73 73 86 101 94 64 51 53 41 29 27 28 41 52 48 45 44 41 28 15
228 227 230 189 201 213 204 209 206 193 191 189 191 191 189 177 163 162 163 158 163 169 158 133 125 119 110 109 97 107 106 92 84 102 116 90 68 56 33 23 26 41 45 41 42 45 37 41 24
223 229 225 209 221 249 225 217 217 192 193 194 192 193 187 174 163 162 161 159 161 150 129 117 112 110 107 109 113 97 94 102 98 98 103 100 86 78 48 29 29 42 51 51 52 45 42 40 38
183 213 225 224 241 243 231 223 216 198 195 192 190 188 183 173 167 159 152 146 143 133 124 117 111 110 117 133 142 128 114 112 105 100 104 114 114 96 70 50 39 43 49 49 49 55 49 45 42
192 191 191 197 215 239 219 225 228 199 194 189 185 182 178 171 165 157 153 152 151 146 141 132 126 128 142 163 160 141 133 128 121 121 104 96 106 87 66 61 49 39 35 51 41 45 52 50 49
206 208 205 211 217 239 208 220 216 188 183 179 176 173 173 169 164 159 157 156 157 154 151 148 143 146 156 170 150 121 114 98 93 88 107 88 92 98 99 79 63 46 36 40 42 37 41 46 44
209 219 232 268 270 244 214 191 158 161 164 170 169 168 170 168 163 161 158 160 160 157 156 154 151 154 159 164 131 114 110 97 102 96 93 97 97 107 108 115 115 94 66 44 36 45 39 43 39
226 223 220 219 254 238 220 202 180 169 170 171 171 169 168 168 166 162 160 159 158 156 159 161 160 157 156 154 141 126 108 102 92 83 75 92 96 82 93 108 119 112 100 75 53 46 31 50 52
212 222 219 224 247 276 247 243 194 173 172 171 173 172 167 165 162 160 159 158 154 154 161 163 160 154 154 148 131 126 126 129 119 97 89 86 126 134 122 79 76 81 83 79 65 44 36 34 40
220 225 220 227 245 224 277 293 285 164 167 168 171 169 163 159 157 157 156 157 157 161 166 165 159 151 149 144 142 150 149 155 144 132 132 121 80 88 102 85 71 76 75 77 74 48 41 39 43
Height
1503 1503 1503 1505 1505 1507 1506 1499 1494 1496 1497 1500 1501 1502 1508 1512 1517 1530 1531 1529 1529 1529 1529 1529 1529 1530 1530 1531 1532 1532 1533 1534 1534 1535 1535 1536 1536 1537 1537 1537 1537 1537 1538 1538 1538 1538 1539 1539 1539
1503 1503 1505 1504 1506 1512 1508 1499 1499 1499 1501 1502 1504 1507 1510 1517 1522 1527 1529 1531 1530 1530 1530 1530 1530 1531 1531 1532 1532 1533 1534 1534 1535 1535 1536 1536 1537 1537 1537 1537 1538 1538 1538 1538 1538 1539 1539 1539 1539
1503 1504 1505 1503 1504 1508 1507 1500 1499 1500 1502 1503 1506 1510 1515 1521 1525 1527 1530 1531 1531 1531 1531 1531 1531 1532 1532 1533 1534 1534 1535 1535 1536 1536 1536 1537 1537 1537 1537 1538 1538 1538 1538 1538 1538 1539 1539 1539 1539
1506 1506 1504 1504 1505 1499 1498 1500 1499 1501 1503 1505 1508 1515 1521 1524 1527 1529 1531 1533 1533 1532 1533 1533 1533 1533 1534 1534 1535 1535 1536 1536 1537 1537 1537 1537 1538 1538 1538 1538 1538 1538 1538 1538 1538 1538 1538 1539 1539
1506 1506 1505 1506 1502 1497 1497 1499 1500 1502 1504 1507 1511 1520 1525 1528 1529 1531 1533 1534 1534 1534 1534 1534 1535 1535 1535 1536 1536 1537 1537 1537 1538 1538 1538 1538 1538 1538 1538 1538 1538 1538 1538 1538 1538 1538 1538 1538 1539
1507 1504 1508 1510 1504 1498 1498 1501 1503 1505 1507 1511 1515 1521 1528 1531 1532 1533 1534 1536 1536 1536 1536 1536 1537 1537 1537 1538 1538 1538 1539 1539 1539 1539 1539 1539 1539 1539 1539 1539 1538 1538 1538 1538 1538 1538 1538 1538 1538
1508 1505 1506 1505 1504 1503 1502 1503 1505 1507 1509 1512 1515 1522 1529 1532 1534 1535 1536 1537 1538 1538 1538 1538 1538 1539 1539 1540 1540 1540 1540 1540 1540 1540 1540 1540 1540 1540 1540 1539 1539 1539 1538 1538 1538 1537 1538 1538 1538
1507 1506 1504 1503 1504 1505 1502 1504 1507 1509 1512 1514 1516 1522 1529 1533 1535 1536 1538 1539 1540 1541 1541 1541 1541 1541 1541 1541 1542 1542 1542 1542 1542 1542 1542 1541 1541 1541 1540 1540 1540 1539 1538 1538 1538 1538 1538 1538 1539
1507 1508 1508 1504 1504 1504 1503 1506 1509 1512 1513 1515 1517 1521 1528 1533 1535 1537 1539 1540 1542 1543 1543 1544 1544 1544 1544 1543 1543 1543 1543 1544 1543 1543 1543 1543 1543 1542 1542 1542 1541 1540 1539 1539 1539 1539 1539 1539 1540
1505 1508 1504 1500 1500 1502 1504 1507 1509 1513 1515 1519 1522 1526 1530 1534 1536 1538 1539 1541 1543 1544 1545 1545 1546 1546 1546 1547 1546 1546 1545 1545 1545 1545 1545 1545 1545 1544 1544 1543 1542 1541 1541 1540 1540 1540 1540 1540 1540
1502 1503 1501 1500 1501 1503 1505 1507 1509 1513 1518 1521 1524 1528 1532 1534 1536 1538 1540 1542 1544 1545 1546 1547 1547 1548 1548 1548 1548 1548 1548 1547 1547 1546 1546 1545 1545 1545 1544 1543 1543 1542 1542 1541 1541 1541 1541 1541 1542
1501 1501 1501 1502 1504 1505 1507 1508 1511 1514 1519 1522 1525 1528 1532 1534 1537 1539 1541 1543 1545 1546 1547 1548 1548 1549 1549 1549 1549 1549 1549 1549 1548 1548 1547 1546 1546 1546 1545 1545 1544 1544 1543 1542 1542 1542 1542 1542 1543
1501 1502 1503 1504 1506 1507 1508 1510 1513 1517 1520 1524 1527 1530 1532 1535 1538 1540 1542 1544 1545 1547 1548 1549 1549 1549 1550 1550 1550 1550 1550 1550 1549 1549 1548 1548 1547 1547 1546 1546 1545 1544 1544 1543 1543 1543 1542 1543 1543
1501 1502 1504 1505 1507 1508 1510 1513 1515 1519 1522 1525 1528 1531 1533 1535 1538 1540 1543 1544 1546 1548 1549 1550 1551 1551 1551 1551 1552 1552 1551 1551 1550 1550 1550 1549 1548 1548 1547 1547 1546 1545 1545 1544 1544 1544 1543 1544 1544
1502 1504 1505 1505 1507 1509 1511 1516 1517 1520 1523 1526 1529 1531 1534 1536 1538 1541 1543 1545 1546 1548 1550 1551 1552 1552 1552 1553 1553 1553 1553 1553 1552 1551 1551 1550 1549 1548 1548 1547 1547 1547 1546 1545 1545 1544 1544 1545 1545
1503 1506 1511 1506 1506 1508 1514 1523 1517 1519 1522 1525 1528 1531 1534 1536 1538 1541 1543 1545 1547 1549 1550 1551 1553 1553 1553 1554 1554 1554 1554 1554 1553 1552 1552 1552 1551 1550 1549 1549 1548 1548 1547 1546 1546 1545 1545 1545 1546
1506 1511 1510 1507 1504 1505 1510 1519 1517 1518 1521 1524 1527 1530 1533 1536 1538 1541 1543 1545 1547 1549 1550 1552 1553 1554 1554 1554 1555 1555 1555 1555 1554 1553 1553 1552 1552 1551 1550 1550 1549 1549 1548 1547 1546 1546 1546 1546 1546
1510 1508 1507 1507 1502 1504 1509 1514 1515 1517 1520 1523 1526 1529 1532 1535 1537 1540 1543 1545 1548 1550 1551 1552 1553 1554 1555 1555 1556 1556 1556 1556 1555 1554 1554 1554 1553 1553 1552 1551 1550 1550 1549 1548 1548 1547 1547 1548 1548
1503 1505 1506 1503 1499 1504 1509 1513 1514 1515 1518 1521 1525 1527 1530 1534 1537 1539 1542 1545 1548 1550 1551 1552 1553 1554 1555 1556 1557 1557 1557 1557 1556 1556 1555 1555 1555 1554 1553 1553 1552 1551 1550 1550 1549 1549 1549 1549 1549
1503 1506 1507 1504 1499 1503 1509 1512 1512 1513 1516 1519 1522 1525 1528 1531 1535 1538 1542 1545 1547 1549 1551 1553 1554 1555 1556 1557 1557 1558 1558 1558 1557 1557 1557 1556 1556 1555 1555 1554 1554 1553 1552 1551 1551 1550 1550 1550 1551
1504 1507 1507 1509 1505 1504 1510 1516 1513 1511 1513 1517 1519 1522 1526 1529 1533 1537 1540 1544 1547 1549 1551 1553 1554 1555 1556 1557 1558 1558 1559 1559 1559 1558 1558 1558 1557 1556 1556 1555 1555 1555 1554 1553 1553 1552 1552 1552 1552
1509 1503 1505 1506 1512 1515 1512 1526 1514 1509 1511 1514 1517 1520 1523 1526 1530 1534 1539 1542 1546 1548 1551 1553 1554 1555 1556 1557 1558 1559 1559 1560 1560 1560 1559 1559 1558 1558 1557 1557 1557 1556 1556 1555 1555 1554 1554 1554 1554
1506 1502 1504 1506 1511 1515 1511 1520 1515 1506 1511 1510 1513 1517 1520 1524 1528 1532 1537 1540 1544 1547 1550 1552 1554 1555 1556 1557 1558 1559 1560 1560 1561 1561 1561 1561 1560 1559 1559 1558 1558 1558 1558 1557 1557 1556 1556 1555 1555
1502 1505 1507 1508 1513 1526 1513 1516 1514 1502 1502 1504 1508 1513 1517 1522 1526 1531 1535 1539 1543 1546 1549 1551 1553 1554 1556 1557 1558 1559 1560 1561 1561 1561 1562 1562 1561 1561 1561 1560 1560 1560 1559 1559 1558 1558 1558 1557 1557
1504 1513 1525 1529 1530 1522 1503 1508 1502 1489 1490 1496 1502 1508 1514 1519 1524 1528 1533 1537 1541 1544 1547 1550 1552 1554 1556 1557 1559 1560 1560 1561 1561 1562 1562 1563 1563 1562 1562 1562 1561 1561 1561 1561 1560 1560 1560 1559 1559
1504 1509 1524 1533 1529 1516 1501 1504 1491 1482 1485 1491 1498 1504 1511 1516 1521 1526 1530 1535 1539 1543 1546 1549 1551 1553 1555 1557 1559 1560 1561 1561 1562 1563 1563 1564 1564 1563 1563 1563 1562 1562 1562 1562 1562 1562 1561 1561 1561
1503 1506 1505 1516 1517 1519 1505 1494 1485 1480 1484 1489 1495 1501 1507 1513 1519 1524 1528 1533 1537 1541 1544 1547 1550 1552 1554 1557 1559 1560 1561 1562 1562 1563 1564 1564 1564 1564 1564 1564 1563 1563 1563 1563 1563 1563 1563 1562 1562
1497 1500 1506 1516 1525 1523 1507 1498 1493 1486 1486 1488 1493 1499 1505 1511 1516 1521 1526 1530 1535 1538 1542 1546 1549 1551 1554 1556 1558 1559 1560 1561 1562 1563 1564 1564 1565 1565 1565 1565 1565 1565 1564 1564 1564 1564 1564 1563 1563
1497 1500 1502 1508 1512 1521 1519 1504 1476 1479 1481 1486 1491 1497 1502 1508 1513 1519 1524 1529 1533 1537 1541 1544 1547 1550 1552 1555 1557 1558 1560 1561 1562 1563 1563 1564 1565 1565 1565 1566 1566 1566 1565 1565 1565 1565 1565 1565 1564
1490 1493 1497 1512 1512 1511 1516 1506 1475 1475 1478 1483 1489 1495 1500 1506 1511 1517 1522 1527 1531 1535 1539 1542 1545 1548 1551 1553 1555 1557 1559 1560 1561 1562 1563 1564 1565 1566 1566 1566 1566 1566 1566 1566 1565 1565 1565 1565 1565